DW9695 Weather Reports


time (UTC)temp
F
wind
direction
speed
knots
gust
knots
rain 1hr
in
rain 24hr
in
rain mn
in
humidity
%
barometer
mb
20260507171508 66 281 1.7 6.1 0.00 0.00 0.00 47 1014.4
20260507170007 65 255 2.6 7.0 0.00 0.00 0.00 49 1014.5
20260507164507 65 273 1.7 4.3 0.00 0.00 0.00 50 1014.5
20260507163003 64 304 0.0 5.2 0.00 0.00 0.00 49 1014.5
20260507161702 63 233 1.7 6.1 0.00 0.00 0.00 52 1014.4
20260507154556 62 203 1.7 3.5 0.00 0.00 0.00 54 1014.5
20260507153056 60 215 0.9 4.3 0.00 0.00 0.00 60 1014.5
20260507151550 60 190 0.9 5.2 0.00 0.00 0.00 60 1014.5
20260507150046 58 217 3.5 7.0 0.00 0.00 0.00 64 1014.2
20260507144548 57 224 3.5 6.1 0.00 0.00 0.00 64 1014.2
20260507143041 56 201 0.0 2.6 0.00 0.00 0.00 68 1014.0
20260507141537 54 210 0.0 1.7 0.00 0.00 0.00 74 1014.0
20260507140050 52 271 0.0 0.0 0.00 0.00 0.00 78 1013.9
20260507134536 48 310 0.0 0.0 0.00 0.00 0.00 85 1013.9
20260507133035 46 32 0.0 0.9 0.00 0.00 0.00 85 1014.0
20260507131536 45 23 0.0 2.6 0.00 0.00 0.00 85 1014.0
20260507130131 43 20 0.0 0.9 0.00 0.00 0.00 85 1013.6
20260507124529 43 25 0.0 0.0 0.00 0.00 0.00 88 1013.3
20260507123032 44 56 0.0 2.6 0.00 0.00 0.00 81 1013.3
20260507121536 46 281 0.9 2.6 0.00 0.00 0.00 86 1013.0
20260507120023 46 341 0.0 1.7 0.00 0.00 0.00 79 1013.1
20260507114522 46 238 0.0 0.9 0.00 0.00 0.00 84 1013.3
20260507113031 47 139 0.0 1.7 0.00 0.00 0.00 84 1013.2
20260507111523 46 91 0.9 2.6 0.00 0.00 0.00 85 1013.2
20260507110017 47 305 0.0 0.0 0.00 0.00 0.00 82 1013.0
20260507104516 48 239 1.7 3.5 0.00 0.00 0.00 83 1012.8
20260507103010 50 64 0.9 5.2 0.00 0.00 0.00 80 1012.7
20260507101510 50 264 1.7 6.1 0.00 0.00 0.00 79 1012.6
20260507100012 51 249 4.3 7.8 0.00 0.00 0.00 77 1012.5
20260507094507 50 262 5.2 7.0 0.00 0.00 0.00 79 1012.5
20260507093006 49 256 1.7 5.2 0.00 0.00 0.00 81 1012.5
20260507091609 51 162 0.0 4.3 0.00 0.00 0.00 77 1012.7
20260507090057 51 274 1.7 4.3 0.00 0.00 0.00 76 1012.2
20260507084558 52 269 2.6 5.2 0.00 0.00 0.00 75 1012.4
20260507083059 54 250 2.6 8.7 0.00 0.00 0.00 71 1012.2
20260507081552 55 257 7.8 11.3 0.00 0.00 0.00 69 1011.7
20260507080114 55 275 7.8 11.3 0.00 0.00 0.00 67 1011.7
20260507074552 55 240 8.7 12.2 0.00 0.00 0.00 68 1011.7
20260507073050 54 250 6.1 9.6 0.00 0.00 0.00 72 1011.9
20260507071557 52 246 4.3 7.0 0.00 0.00 0.00 76 1011.9
20260507070038 53 250 1.7 4.3 0.00 0.00 0.00 74 1011.9
20260507064537 54 285 0.0 4.3 0.00 0.00 0.00 71 1011.9
20260507063039 56 255 0.9 4.3 0.00 0.00 0.00 68 1011.8
20260507061536 57 297 1.7 3.5 0.00 0.00 0.00 65 1011.7
20260507060033 58 311 2.6 7.0 0.00 0.00 0.00 61 1011.2
20260507054533 59 298 2.6 6.1 0.00 0.00 0.00 60 1011.2
20260507053037 60 257 2.6 5.2 0.00 0.00 0.00 58 1011.2
20260507051534 61 292 2.6 5.2 0.00 0.00 0.00 57 1011.0
20260507050031 62 307 3.5 5.2 0.00 0.00 0.00 54 1010.9
20260507044533 62 297 3.5 7.8 0.00 0.00 0.00 54 1010.9
20260507043036 62 297 2.6 7.0 0.00 0.00 0.00 53 1010.7
20260507041529 63 297 3.5 7.8 0.00 0.00 0.00 50 1010.7
20260507040028 64 290 5.2 9.6 0.00 0.00 0.00 48 1010.6
20260507034528 64 314 5.2 9.6 0.00 0.00 0.00 46 1010.3
20260507033028 65 295 2.6 5.2 0.00 0.00 0.00 43 1010.3
20260507031526 66 259 3.5 6.1 0.00 0.00 0.00 40 1010.2
20260507030030 67 299 3.5 7.8 0.00 0.00 0.00 37 1010.1
20260507024525 68 307 3.5 7.0 0.00 0.00 0.00 36 1009.7
20260507023028 70 311 3.5 7.0 0.00 0.00 0.00 33 1009.7
20260507021524 71 299 2.6 5.2 0.00 0.00 0.00 31 1009.4
20260507020025 73 300 3.5 6.1 0.00 0.00 0.00 29 1009.4
20260507014522 73 290 3.5 7.0 0.00 0.00 0.00 32 1009.4
20260507013032 74 305 3.5 7.8 0.00 0.00 0.00 31 1009.3
20260507011534 74 307 4.3 7.0 0.00 0.00 0.00 31 1009.1
20260507010019 74 290 3.5 7.0 0.00 0.00 0.00 33 1009.2
20260507004519 74 300 4.3 10.4 0.00 0.00 0.00 35 1009.2
20260507003019 76 325 4.3 8.7 0.00 0.00 0.00 33 1009.2
20260507001516 78 285 4.3 9.6 0.00 0.00 0.00 32 1009.1
20260507000017 80 266 3.5 7.0 0.00 0.00 0.00 32 1009.2
20260506234515 82 256 7.8 13.9 0.00 0.00 0.00 39 1009.1
20260506233015 83 212 7.0 13.9 0.00 0.00 0.00 38 1009.0
20260506231511 82 209 8.7 13.0 0.00 0.00 0.00 38 1009.0
20260506230009 80 221 7.0 11.3 0.00 0.00 0.00 42 1009.1
20260506224514 79 205 4.3 13.0 0.00 0.00 0.00 41 1009.3
20260506223004 81 205 5.2 11.3 0.00 0.00 0.00 39 1009.6
20260506221504 81 203 4.3 10.4 0.00 0.00 0.00 39 1009.8
20260506220003 80 237 5.2 12.2 0.00 0.00 0.00 42 1010.1
20260506214502 80 253 7.0 9.6 0.00 0.00 0.00 44 1010.2
20260506213001 82 238 1.7 9.6 0.00 0.00 0.00 40 1010.3
20260506211559 81 252 6.1 11.3 0.00 0.00 0.00 42 1010.4
20260506210120 80 242 7.8 11.3 0.00 0.00 0.00 42 1010.6
20260506204557 80 207 2.6 7.8 0.00 0.00 0.00 46 1010.7
20260506203142 79 233 5.2 8.7 0.00 0.00 0.00 42 1010.9
20260506201554 80 212 3.5 10.4 0.00 0.00 0.00 42 1011.0
20260506200053 80 233 5.2 10.4 0.00 0.00 0.00 40 1011.1
20260506194551 78 197 3.5 9.6 0.00 0.00 0.00 44 1011.3
20260506193050 78 259 6.1 8.7 0.00 0.00 0.00 43 1011.4
20260506191552 77 222 5.2 12.2 0.00 0.00 0.00 45 1011.7
20260506190050 78 283 5.2 10.4 0.00 0.00 0.00 47 1011.7
20260506184554 77 252 1.7 7.8 0.00 0.00 0.00 49 1011.7
20260506183043 76 248 2.6 7.8 0.00 0.00 0.00 48 1011.5
20260506181540 76 232 3.5 7.8 0.00 0.00 0.00 47 1011.7
20260506180038 75 215 5.2 9.6 0.00 0.00 0.00 46 1011.8
20260506174535 73 221 4.3 10.4 0.00 0.00 0.00 53 1011.9
20260506173044 73 211 3.5 9.6 0.00 0.00 0.00 53 1011.8